TimeEST,TemperatureF,Dew PointF,Humidity,Sea Level PressureIn,VisibilityMPH,Wind Direction,Wind SpeedMPH,Gust SpeedMPH,PrecipitationIn,Events,Conditions,WindDirDegrees,DateUTC
12:05 AM,45.9,30.6,55,29.97,10.0,South,3.5,-,N/A,,Clear,190,2013-01-20 05:05:00
12:25 AM,46.0,30.7,55,29.96,10.0,South,6.9,-,N/A,,Clear,190,2013-01-20 05:25:00
12:45 AM,46.2,30.7,55,29.95,10.0,SW,6.9,-,N/A,,Clear,220,2013-01-20 05:45:00
1:10 AM,46.2,30.9,55,29.94,10.0,SSW,6.9,-,N/A,,Clear,210,2013-01-20 06:10:00
1:30 AM,46.4,30.9,55,29.93,10.0,SSW,5.8,-,N/A,,Clear,210,2013-01-20 06:30:00
1:50 AM,46.4,30.9,55,29.93,10.0,SSW,6.9,-,N/A,,Clear,210,2013-01-20 06:50:00
2:10 AM,46.4,30.9,55,29.92,10.0,SW,4.6,-,N/A,,Clear,220,2013-01-20 07:10:00
2:35 AM,46.0,30.7,55,29.92,10.0,SSW,6.9,-,N/A,,Clear,210,2013-01-20 07:35:00
2:55 AM,46.0,30.6,55,29.91,10.0,SSW,5.8,-,N/A,,Clear,200,2013-01-20 07:55:00
3:15 AM,45.7,30.7,56,29.91,10.0,SSW,5.8,-,N/A,,Clear,200,2013-01-20 08:15:00
3:40 AM,45.5,30.7,56,29.90,10.0,SW,4.6,-,N/A,,Clear,220,2013-01-20 08:40:00
4:00 AM,45.1,30.7,57,29.89,10.0,SSW,4.6,-,N/A,,Clear,200,2013-01-20 09:00:00
4:20 AM,45.0,30.7,57,29.89,10.0,SSW,3.5,-,N/A,,Clear,210,2013-01-20 09:20:00
4:40 AM,44.6,30.9,59,29.88,10.0,SSW,4.6,-,N/A,,Clear,200,2013-01-20 09:40:00
5:05 AM,44.2,31.1,60,29.87,10.0,SSW,5.8,-,N/A,,Clear,210,2013-01-20 10:05:00
5:20 AM,43.9,31.1,61,29.88,10.0,SSW,5.8,-,N/A,,Clear,210,2013-01-20 10:20:00
5:45 AM,43.3,31.1,62,29.87,10.0,South,3.5,-,N/A,,Clear,190,2013-01-20 10:45:00
6:05 AM,43.2,31.1,62,29.87,10.0,South,4.6,-,N/A,,Clear,190,2013-01-20 11:05:00
6:30 AM,42.8,30.9,63,29.86,10.0,South,3.5,-,N/A,,Clear,190,2013-01-20 11:30:00
6:50 AM,42.8,31.1,63,29.86,10.0,South,6.9,-,N/A,,Clear,180,2013-01-20 11:50:00
7:10 AM,42.8,30.9,63,29.87,10.0,SSW,4.6,-,N/A,,Clear,200,2013-01-20 12:10:00
7:30 AM,42.4,31.1,64,29.86,10.0,South,5.8,-,N/A,,Clear,180,2013-01-20 12:30:00
7:55 AM,42.8,31.1,63,29.86,10.0,South,3.5,-,N/A,,Clear,190,2013-01-20 12:55:00
8:15 AM,44.1,30.7,59,29.86,10.0,South,4.6,-,N/A,,Clear,190,2013-01-20 13:15:00
8:35 AM,45.3,30.9,57,29.87,10.0,South,5.8,-,N/A,,Clear,190,2013-01-20 13:35:00
8:55 AM,46.4,31.1,55,29.87,10.0,SSW,6.9,-,N/A,,Clear,200,2013-01-20 13:55:00
9:20 AM,48.2,31.1,52,29.87,10.0,SSW,6.9,-,N/A,,Clear,210,2013-01-20 14:20:00
9:40 AM,49.6,31.3,49,29.88,10.0,SW,6.9,-,N/A,,Clear,220,2013-01-20 14:40:00
10:00 AM,51.6,31.5,46,29.89,10.0,SW,3.5,-,N/A,,Clear,220,2013-01-20 15:00:00
10:20 AM,53.8,31.5,43,29.88,10.0,SW,8.1,-,N/A,,Clear,220,2013-01-20 15:20:00
10:45 AM,55.4,32.0,41,29.87,10.0,South,5.8,-,N/A,,Clear,170,2013-01-20 15:45:00
11:05 AM,54.9,32.0,42,29.87,10.0,South,6.9,-,N/A,,Clear,190,2013-01-20 16:05:00
11:25 AM,55.6,32.4,41,29.86,10.0,South,4.6,-,N/A,,Clear,190,2013-01-20 16:25:00
12:10 PM,59.9,32.0,35,29.84,10.0,West,15.0,20.7,N/A,,Clear,280,2013-01-20 17:10:00
12:30 PM,59.4,31.6,35,29.84,10.0,West,12.7,17.3,N/A,,Clear,270,2013-01-20 17:30:00
12:50 PM,60.1,31.8,34,29.84,10.0,West,6.9,18.4,N/A,,Clear,270,2013-01-20 17:50:00
1:15 PM,60.8,30.2,31,29.83,10.0,WNW,12.7,20.7,N/A,,Clear,290,2013-01-20 18:15:00
1:35 PM,61.7,26.4,26,29.83,10.0,WNW,19.6,27.6,N/A,,Clear,290,2013-01-20 18:35:00
1:50 PM,61.2,25.5,26,29.84,10.0,West,17.3,25.3,N/A,,Clear,280,2013-01-20 18:50:00
2:15 PM,61.2,24.4,25,29.84,10.0,WNW,11.5,21.9,N/A,,Clear,290,2013-01-20 19:15:00
2:40 PM,60.6,23.9,25,29.86,10.0,NW,16.1,24.2,N/A,,Clear,310,2013-01-20 19:40:00
3:00 PM,60.3,23.4,24,29.87,10.0,WNW,11.5,18.4,N/A,,Clear,300,2013-01-20 20:00:00
3:20 PM,59.5,21.9,23,29.88,10.0,West,15.0,21.9,N/A,,Clear,270,2013-01-20 20:20:00
3:40 PM,58.6,20.8,23,29.89,10.0,NW,17.3,26.5,N/A,,Clear,310,2013-01-20 20:40:00
4:05 PM,57.7,19.9,23,29.90,10.0,NW,13.8,25.3,N/A,,Clear,320,2013-01-20 21:05:00
4:25 PM,56.5,15.4,20,29.92,10.0,WNW,16.1,25.3,N/A,,Clear,290,2013-01-20 21:25:00
4:45 PM,55.4,13.1,19,29.93,10.0,WNW,12.7,26.5,N/A,,Clear,300,2013-01-20 21:45:00
5:05 PM,53.8,15.1,22,29.94,10.0,NW,11.5,26.5,N/A,,Clear,310,2013-01-20 22:05:00
5:30 PM,52.3,15.3,23,29.96,10.0,WNW,10.4,20.7,N/A,,Clear,300,2013-01-20 22:30:00
5:50 PM,51.3,13.3,22,29.96,10.0,NW,10.4,24.2,N/A,,Clear,320,2013-01-20 22:50:00
6:10 PM,50.4,11.1,21,29.98,10.0,WNW,15.0,23.0,N/A,,Clear,300,2013-01-20 23:10:00
6:30 PM,49.8,10.8,21,29.99,10.0,NW,15.0,20.7,N/A,,Clear,320,2013-01-20 23:30:00
6:55 PM,47.5,13.8,26,30.00,10.0,NNW,11.5,-,N/A,,Clear,340,2013-01-20 23:55:00
7:15 PM,46.4,13.1,26,30.01,10.0,NNW,5.8,-,N/A,,Clear,340,2013-01-21 00:15:00
7:35 PM,45.7,12.6,26,30.02,10.0,NW,11.5,18.4,N/A,,Clear,320,2013-01-21 00:35:00
7:55 PM,45.1,12.9,27,30.02,10.0,NNW,10.4,17.3,N/A,,Clear,330,2013-01-21 00:55:00
8:20 PM,44.1,14.0,30,30.04,10.0,North,5.8,18.4,N/A,,Clear,350,2013-01-21 01:20:00
8:40 PM,43.0,14.4,31,30.05,10.0,North,6.9,-,N/A,,Clear,350,2013-01-21 01:40:00
9:00 PM,42.4,14.9,33,30.06,10.0,North,5.8,-,N/A,,Clear,350,2013-01-21 02:00:00
9:20 PM,41.9,14.7,33,30.07,10.0,NNW,4.6,-,N/A,,Clear,330,2013-01-21 02:20:00
9:45 PM,40.8,15.3,35,30.06,10.0,NNW,6.9,-,N/A,,Clear,330,2013-01-21 02:45:00
10:05 PM,41.0,14.7,34,30.06,10.0,North,5.8,-,N/A,,Clear,350,2013-01-21 03:05:00
10:25 PM,40.1,14.9,36,30.07,10.0,North,3.5,-,N/A,,Clear,360,2013-01-21 03:25:00
11:10 PM,38.1,15.8,40,30.10,10.0,Calm,Calm,-,N/A,,Clear,0,2013-01-21 04:10:00
11:50 PM,35.6,24.3,63,30.09,10.0,Calm,Calm,-,N/A,,Clear,0,2013-01-21 04:50:00